Elkins, WV

6:20 PM EST on February 22, 2018 (GMT -0500)
Elkins-Randolph County

Weather History for KEKN - March, 2014

Change the Weather History Date:

Wednesday, March 26, 2014

  Actual Average Record
Temperature  
Mean Temperature 20 °F 43 °F  
Max Temperature 27 °F 55 °F 79 °F (1916)
Min Temperature 13 °F 31 °F 5 °F (1940)
Degree Days  
Heating Degree Days 45 22  
Month to date heating degree days 783 676  
Since 1 July heating degree days 5306 4997  
Cooling Degree Days 0 0  
Month to date cooling degree days 0 0  
Year to date cooling degree days 0 0  
Moisture  
Dew Point 10 °F    
Average Humidity 63    
Maximum Humidity 84    
Minimum Humidity 42    
Precipitation  
Precipitation 0.02 in 0.13 in 0.95 in (1924)
Month to date precipitation 2.09 3.29  
Year to date precipitation 8.35 9.62  
Snow  
Snow 1.00 in - - ()
Month to date snowfall 12.3  
Since 1 September snowfall 88.2  
Snow Depth 2.00 in    
Sea Level Pressure  
Sea Level Pressure 30.18 in    
Wind  
Wind Speed 10 mph (WNW)    
Max Wind Speed 22 mph    
Max Gust Speed 29 mph    
Visibility 8 miles    
Events Snow    
T = Trace of Precipitation, MM = Missing Value Source: NWS Daily Summary

Daily Weather History Graph

Daily Weather History Graph

Search for Another Location

Airport or City:

Trip Planner

Search our weather history database for the weather conditions in past years. The results will help you decide how hot, cold, wet, or windy it might be!

Date:

Astronomy

Mar. 26, 2014 Rise Set
Actual Time 7:13 AM EDT 7:37 PM EDT
Civil Twilight 6:46 AM EDT 8:03 PM EDT
Nautical Twilight 6:15 AM EDT 8:35 PM EDT
Astronomical Twilight 5:43 AM EDT 9:07 PM EDT
Moon 4:18 AM EDT (3/26) 3:16 PM EDT (3/26)
Length of Visible Light 13h 17m
Length of Day
12h 23m
Waning Crescent, 22% of the Moon is Illuminated
Mar 26
Waning Crescent
Mar 30
New
Apr 7
First Quarter
Apr 15
Full
Apr 22
Last Quarter

Hourly Weather History & Observations

Time (EDT) Temp. Windchill Dew Point Humidity Pressure Visibility Wind Dir Wind Speed Gust Speed Precip Events Conditions
12:32 AM 24.1 °F 17.0 °F 16.0 °F 71% 29.97 in 9.0 mi NW 5.8 mph 17.3 mph 0.00 in Snow Light Snow
12:42 AM 23.0 °F 11.7 °F 16.0 °F 74% 29.97 in 2.5 mi NNW 11.5 mph - 0.00 in Snow Light Snow
12:51 AM 21.9 °F 12.5 °F 17.1 °F 82% 30.05 in 1.0 mi NW 8.1 mph - 0.01 in Snow Light Snow
12:55 AM 21.9 °F 10.4 °F 17.1 °F 82% 29.97 in 0.8 mi NW 11.5 mph - 0.00 in Snow Light Snow
1:02 AM 21.9 °F 9.8 °F 18.0 °F 85% 29.97 in 0.8 mi WNW 12.7 mph 18.4 mph 0.01 in Snow Light Snow
1:18 AM 21.9 °F 7.8 °F 17.1 °F 82% 29.97 in 1.2 mi NW 17.3 mph 24.2 mph 0.01 in Snow Light Snow
1:23 AM 21.0 °F 5.0 °F 16.0 °F 81% 29.98 in 2.0 mi NW 21.9 mph 29.9 mph 0.01 in Snow Light Snow
1:32 AM 21.9 °F 9.2 °F 15.1 °F 75% 29.98 in 5.0 mi NW 13.8 mph 29.9 mph 0.01 in Snow Light Snow
1:43 AM 21.9 °F 8.7 °F 14.0 °F 72% 29.99 in 9.0 mi NW 15.0 mph 24.2 mph 0.01 in   Overcast
1:51 AM 21.9 °F 7.3 °F 14.0 °F 72% 30.07 in 10.0 mi WNW 18.4 mph - 0.01 in   Overcast
2:51 AM 19.9 °F 7.3 °F 10.9 °F 68% 30.09 in 5.0 mi NNW 12.7 mph 28.8 mph 0.02 in Snow Light Snow
3:21 AM 19.9 °F 8.6 °F 10.9 °F 68% 30.00 in 9.0 mi NW 10.4 mph - 0.00 in   Mostly Cloudy
3:51 AM 19.9 °F 7.3 °F 6.1 °F 55% 30.09 in 10.0 mi NW 12.7 mph - 0.00 in   Scattered Clouds
4:51 AM 18.0 °F 3.1 °F 6.1 °F 60% 30.12 in 10.0 mi WNW 16.1 mph - N/A   Partly Cloudy
5:51 AM 18.0 °F 4.2 °F 6.1 °F 60% 30.14 in 10.0 mi NW 13.8 mph 23.0 mph N/A   Overcast
6:51 AM 18.0 °F 5.4 °F 6.1 °F 60% 30.17 in 10.0 mi NW 11.5 mph - 0.00 in Snow Light Snow
7:43 AM 17.1 °F 5.0 °F 8.1 °F 68% 30.11 in 4.0 mi WNW 10.4 mph 19.6 mph 0.00 in Snow Light Snow
7:51 AM 17.1 °F 5.8 °F 8.1 °F 68% 30.21 in 7.0 mi WNW 9.2 mph - 0.00 in Snow Light Snow
8:10 AM 17.1 °F 3.6 °F 7.0 °F 65% 30.12 in 6.0 mi West 12.7 mph 17.3 mph 0.00 in Snow Light Snow
8:34 AM 17.1 °F 5.0 °F 6.1 °F 62% 30.14 in 9.0 mi NW 10.4 mph 19.6 mph 0.00 in   Mostly Cloudy
8:51 AM 17.1 °F 5.8 °F 6.1 °F 62% 30.25 in 10.0 mi WNW 9.2 mph 18.4 mph 0.00 in   Overcast
9:39 AM 18.0 °F 3.6 °F 8.1 °F 65% 30.17 in 6.0 mi WNW 15.0 mph 21.9 mph 0.00 in Snow Light Snow
9:51 AM 18.0 °F 6.1 °F 8.1 °F 65% 30.27 in 4.0 mi NW 10.4 mph 21.9 mph 0.00 in Snow Light Snow
10:25 AM 19.0 °F 8.2 °F 8.1 °F 62% 30.18 in 9.0 mi NW 9.2 mph 17.3 mph 0.00 in   Overcast
10:51 AM 19.0 °F 6.1 °F 7.0 °F 59% 30.29 in 9.0 mi NNW 12.7 mph 19.6 mph 0.00 in Snow Light Snow
11:40 AM 19.9 °F 7.9 °F 10.0 °F 65% 30.20 in 3.0 mi WNW 11.5 mph - 0.00 in Snow Light Snow
11:49 AM 19.4 °F 6.6 °F 8.6 °F 63% 30.20 in 6.0 mi WNW 12.7 mph 19.6 mph 0.00 in Snow Light Snow
11:51 AM 19.9 °F 8.6 °F 9.0 °F 62% 30.31 in 7.0 mi WNW 10.4 mph 19.6 mph 0.00 in Snow Light Snow
12:07 PM 19.9 °F 10.1 °F 7.0 °F 57% 30.20 in 9.0 mi NW 8.1 mph 16.1 mph 0.00 in Snow Light Snow
12:51 PM 21.0 °F 8.1 °F 7.0 °F 55% 30.31 in 9.0 mi NW 13.8 mph - 0.00 in Snow Light Snow
1:35 PM 21.9 °F 8.2 °F 10.0 °F 60% 30.21 in 8.0 mi NW 16.1 mph 21.9 mph 0.00 in Snow Light Snow
1:42 PM 21.9 °F 9.8 °F 9.0 °F 58% 30.21 in 9.0 mi WNW 12.7 mph 21.9 mph 0.00 in Snow Light Snow
1:51 PM 21.9 °F 9.2 °F 8.1 °F 55% 30.31 in 9.0 mi NW 13.8 mph 20.7 mph 0.00 in   Overcast
2:51 PM 24.1 °F 11.5 °F 10.9 °F 57% 30.30 in 10.0 mi West 15.0 mph - N/A   Overcast
3:51 PM 25.0 °F 14.2 °F 9.0 °F 51% 30.30 in 10.0 mi West 11.5 mph 19.6 mph N/A   Mostly Cloudy
4:51 PM 26.1 °F 15.0 °F 9.0 °F 49% 30.30 in 10.0 mi NW 12.7 mph 18.4 mph N/A   Mostly Cloudy
5:51 PM 27.0 °F 16.1 °F 8.1 °F 45% 30.30 in 10.0 mi West 12.7 mph - N/A   Scattered Clouds
6:51 PM 27.0 °F 18.7 °F 7.0 °F 43% 30.31 in 10.0 mi WSW 8.1 mph 19.6 mph N/A   Clear
7:51 PM 25.0 °F 18.1 °F 7.0 °F 46% 30.32 in 10.0 mi WNW 5.8 mph - N/A   Clear
8:51 PM 24.1 °F 19.7 °F 7.0 °F 48% 30.34 in 10.0 mi SSW 3.5 mph - N/A   Clear
9:51 PM 18.0 °F - 8.1 °F 65% 30.35 in 10.0 mi Calm Calm - N/A   Clear
10:51 PM 15.1 °F - 8.1 °F 74% 30.37 in 10.0 mi Calm Calm - N/A   Clear
11:51 PM 15.1 °F - 9.0 °F 77% 30.38 in 10.0 mi Calm Calm - N/A   Clear